z/d,0,0,50,50,100,100,150,150,200,200,300,300,400,400,500,500,600,600,750,750,1000,1000,1500,1500,2000,2000,2500,2500,3000,3000,3500,3500
2018.01.08-01:00,.69,236.69,.74,230.99,.80,231.13,.73,241.04,.75,232.96,.77,251.53,.55,256.73,.50,256.45,.45,267.69,.44,278.96,.39,287.30,.35,262.95,.33,270.97,.39,260.43,.51,261.49,.73,260.76
2018.01.08-02:00,.67,230.30,.73,225.07,.77,226.18,.66,238.81,.73,233.00,.75,256.29,.56,260.13,.53,259.80,.46,270.17,.44,282.60,.38,291.25,.34,264.59,.31,270.81,.38,260.30,.49,262.24,.71,261.61
2018.01.08-03:00,.74,228.37,.81,224.46,.84,225.21,.65,235.98,.73,233.11,.71,260.99,.55,265.00,.53,265.06,.47,274.69,.43,287.08,.37,295.40,.35,267.06,.31,270.40,.38,259.75,.49,261.55,.71,261.15
2018.01.08-04:00,.84,230.66,.91,227.63,.94,227.63,.69,233.78,.75,233.92,.67,265.12,.53,270.53,.52,271.14,.47,279.76,.43,291.03,.36,298.38,.36,269.74,.32,270.11,.40,259.44,.51,260.05,.72,259.88
2018.01.08-05:00,.94,234.25,.99,231.88,1.01,231.48,.75,231.70,.79,234.35,.63,266.88,.51,274.83,.52,276.24,.48,283.51,.43,292.84,.36,298.65,.37,271.84,.34,269.83,.43,259.75,.54,258.54,.75,258.46
2018.01.08-06:00,.97,238.44,1.01,236.01,1.02,235.67,.80,229.52,.83,233.51,.60,264.81,.47,276.35,.51,279.52,.49,285.70,.45,292.60,.37,296.20,.40,273.08,.37,269.51,.47,260.75,.58,257.75,.79,257.50
2018.01.08-07:00,.92,249.65,.96,243.48,.97,243.26,.85,230.84,.89,234.51,.60,260.76,.43,274.02,.49,281.03,.49,287.15,.46,291.71,.39,292.73,.43,273.68,.40,269.09,.50,261.80,.61,257.33,.82,256.80
2018.01.08-08:00,.88,256.19,.91,249.23,.93,248.60,.92,231.38,.95,235.79,.61,255.35,.41,265.37,.47,279.00,.49,286.95,.48,290.55,.41,289.15,.45,274.67,.43,269.54,.52,263.52,.64,257.88,.85,256.84
2018.01.08-09:00,.84,254.72,.87,246.08,.91,244.97,1.05,228.96,1.02,236.09,.62,248.93,.43,255.06,.47,275.20,.49,285.64,.49,289.82,.42,286.47,.46,276.87,.45,271.50,.52,266.22,.64,259.57,.87,257.77
2018.01.08-10:00,.81,255.39,.88,238.45,.93,238.69,1.16,229.04,1.04,237.50,.65,245.75,.48,250.64,.48,273.76,.49,285.61,.50,290.51,.43,285.64,.46,279.67,.45,273.90,.51,268.64,.64,261.18,.88,258.79
2018.01.08-11:00,.73,251.21,.91,230.53,.95,232.94,1.19,231.13,1.02,240.48,.69,246.41,.55,251.12,.50,274.30,.51,286.68,.51,291.99,.44,286.23,.44,282.43,.43,276.05,.49,270.32,.63,262.34,.87,259.71
2018.01.08-12:00,.67,247.30,.89,223.04,.92,227.54,1.12,233.74,.94,245.09,.71,249.79,.60,254.36,.53,275.83,.52,288.07,.51,293.39,.44,287.50,.42,284.84,.41,277.85,.46,271.73,.61,263.35,.86,260.74
2018.01.08-13:00,.58,250.26,.86,215.89,.86,221.77,1.01,235.63,.83,248.55,.70,253.16,.64,257.35,.55,276.85,.53,288.96,.52,294.10,.44,288.49,.41,286.37,.39,278.94,.44,273.14,.59,264.63,.85,262.02
2018.01.08-14:00,.46,250.85,.88,211.56,.86,216.67,.92,236.17,.73,249.00,.65,255.41,.64,260.09,.55,277.84,.53,290.02,.52,294.93,.45,289.81,.40,287.64,.38,279.82,.42,274.73,.58,266.19,.84,263.35
2018.01.08-15:00,.47,249.89,.94,213.92,.94,217.11,.89,237.66,.69,249.35,.59,257.33,.62,264.32,.54,280.35,.53,292.10,.53,296.53,.46,291.77,.39,288.82,.38,280.23,.41,275.45,.57,266.97,.83,263.92
2018.01.08-16:00,.48,255.56,1.01,219.47,1.04,221.35,.89,239.88,.68,251.10,.53,258.26,.59,269.41,.54,284.02,.54,294.62,.54,298.25,.47,293.56,.40,289.45,.38,279.99,.42,274.88,.57,266.60,.83,263.58
2018.01.08-17:00,.56,253.68,1.06,225.77,1.14,227.15,.92,241.47,.68,252.32,.49,255.06,.56,272.11,.52,285.90,.54,295.67,.54,298.87,.48,294.46,.41,289.76,.40,279.93,.43,274.18,.57,265.80,.84,262.92
2018.01.08-18:00,.54,256.57,1.06,231.61,1.17,233.43,.95,243.24,.68,252.03,.48,247.53,.52,271.10,.50,285.35,.53,295.18,.54,298.56,.49,294.79,.43,290.24,.43,280.67,.45,274.07,.59,265.00,.87,262.24
2018.01.08-19:00,.39,258.24,1.04,235.98,1.16,239.21,.98,245.22,.67,249.23,.52,239.03,.50,266.74,.48,282.89,.52,293.83,.54,298.07,.50,295.28,.45,291.19,.45,282.15,.47,274.58,.61,264.29,.89,261.58
2018.01.08-20:00,.13,230.51,1.02,239.15,1.14,243.93,.99,247.33,.70,243.94,.62,234.77,.52,261.39,.49,279.14,.52,291.45,.54,297.10,.51,295.88,.46,292.74,.47,284.49,.49,276.05,.62,264.15,.92,261.23
2018.01.08-21:00,.12,171.35,1.02,237.14,1.11,243.37,.96,245.11,.75,235.15,.73,234.57,.56,258.52,.51,276.56,.53,289.58,.55,296.38,.52,297.07,.47,295.14,.48,287.98,.49,278.41,.63,264.95,.94,261.49
2018.01.08-22:00,.20,183.19,1.04,233.19,1.07,240.24,.92,241.03,.81,230.31,.79,239.64,.58,261.04,.52,277.58,.54,289.94,.54,296.62,.50,298.67,.46,297.41,.48,291.33,.49,280.11,.64,265.83,.96,261.86
2018.01.08-23:00,.35,182.60,1.04,228.54,1.04,236.53,.87,237.44,.85,231.14,.82,247.93,.61,265.67,.54,279.39,.55,290.55,.52,296.60,.48,299.53,.44,299.01,.46,294.08,.47,281.62,.64,266.69,.96,262.34
2018.01.08-24:00,.47,174.95,1.03,223.34,.98,232.13,.82,234.46,.86,234.78,.84,256.37,.64,269.69,.56,280.44,.55,290.70,.52,296.17,.46,299.37,.42,300.21,.44,296.79,.44,284.03,.62,268.06,.94,263.31
2018.01.09-01:00,.60,168.29,1.01,219.43,.93,228.93,.77,232.62,.84,238.47,.81,263.03,.64,272.26,.56,280.49,.55,290.41,.50,295.48,.43,298.24,.40,300.77,.42,299.34,.42,287.04,.60,270.06,.92,264.93
2018.01.09-02:00,.67,168.75,1.02,218.10,.90,228.05,.75,231.83,.81,240.52,.74,267.29,.61,273.45,.54,279.56,.52,289.58,.49,294.65,.41,296.49,.38,300.72,.41,301.45,.40,289.84,.58,272.16,.90,266.74
2018.01.09-03:00,.91,171.63,1.04,218.43,.89,228.18,.75,231.44,.79,240.83,.66,268.95,.57,273.80,.52,278.22,.51,288.39,.48,294.11,.41,294.96,.38,300.38,.40,302.93,.39,292.09,.56,273.92,.88,268.26
2018.01.09-04:00,1.13,179.49,1.10,221.83,.92,229.92,.78,233.07,.79,241.94,.60,268.76,.54,274.14,.52,277.28,.51,287.25,.50,293.87,.43,293.89,.39,299.33,.40,302.85,.39,292.50,.54,274.20,.86,268.59
2018.01.09-05:00,1.17,188.71,1.20,226.67,.99,232.47,.83,236.25,.78,244.78,.54,268.04,.52,275.02,.53,277.50,.52,287.15,.52,294.39,.46,293.96,.40,298.38,.40,301.69,.38,291.16,.53,273.41,.84,267.99
2018.01.09-06:00,1.28,195.97,1.26,231.20,1.03,234.85,.85,238.73,.76,246.88,.49,264.51,.48,273.91,.52,277.00,.53,286.89,.54,294.53,.49,293.89,.42,296.58,.41,298.52,.39,287.15,.54,271.60,.85,266.68
2018.01.09-07:00,1.25,203.99,1.28,235.36,1.04,238.47,.85,240.53,.75,246.97,.48,256.82,.45,269.40,.51,275.14,.53,286.26,.56,294.70,.51,294.31,.43,295.28,.42,295.23,.40,282.53,.56,269.69,.87,265.29
2018.01.09-08:00,1.08,212.58,1.28,240.32,1.05,243.68,.88,241.56,.79,245.12,.52,248.41,.46,262.42,.51,272.27,.54,285.36,.57,295.10,.53,295.49,.44,294.98,.42,292.76,.42,278.30,.58,267.58,.90,263.78
2018.01.09-09:00,.95,214.13,1.27,243.31,1.06,246.64,.92,239.14,.86,241.62,.61,243.37,.50,256.43,.54,269.33,.55,284.33,.57,295.37,.53,296.96,.45,295.63,.43,291.61,.43,275.37,.59,266.04,.92,262.65
2018.01.09-10:00,.97,206.83,1.22,240.15,1.01,242.42,.96,232.36,.92,238.82,.69,242.37,.57,254.44,.56,267.82,.55,283.63,.56,295.19,.52,298.09,.44,296.74,.43,291.79,.44,274.36,.61,266.32,.93,262.79
2018.01.09-11:00,.97,200.51,1.19,236.48,.98,237.75,1.02,230.32,.96,241.29,.76,246.31,.64,255.96,.59,266.93,.54,281.75,.53,293.33,.49,297.87,.43,297.21,.42,292.23,.45,274.14,.61,267.23,.93,263.45
2018.01.09-12:00,.90,192.46,1.14,232.88,.97,234.50,1.05,232.14,.96,245.95,.80,251.73,.69,258.75,.61,266.18,.54,278.92,.50,290.08,.45,296.70,.40,297.54,.41,293.30,.43,274.94,.60,268.63,.91,264.44
2018.01.09-13:00,.86,183.88,1.06,229.07,.93,232.63,1.04,234.89,.92,249.78,.79,256.62,.69,261.80,.61,265.64,.53,275.93,.47,286.22,.42,294.93,.37,297.70,.39,294.62,.42,276.44,.59,270.29,.89,265.55
2018.01.09-14:00,.84,177.58,.98,224.68,.88,231.37,1.00,237.45,.86,252.04,.74,260.51,.66,264.88,.60,265.46,.52,273.19,.45,282.19,.39,292.48,.35,297.39,.38,295.71,.41,278.07,.58,272.01,.88,266.70
2018.01.09-15:00,.85,173.30,.92,220.22,.84,229.96,.95,240.20,.79,253.32,.67,263.08,.61,267.90,.59,266.17,.52,271.43,.45,278.85,.37,289.51,.34,296.22,.37,296.25,.41,279.45,.56,273.56,.86,267.73
2018.01.09-16:00,.92,173.69,.93,215.43,.84,226.48,.90,242.00,.71,253.11,.58,262.96,.55,269.97,.57,267.97,.52,271.56,.46,277.55,.37,287.38,.34,294.53,.37,296.00,.41,280.23,.55,274.35,.84,268.15
2018.01.09-17:00,.99,180.23,1.01,213.71,.91,223.88,.87,244.03,.65,252.07,.51,259.67,.48,269.87,.56,270.34,.53,273.50,.47,278.35,.39,286.81,.36,292.86,.38,294.89,.41,280.19,.53,274.10,.82,267.72
2018.01.09-18:00,1.10,191.71,1.12,216.07,1.01,224.42,.86,246.53,.61,250.64,.49,254.20,.45,266.72,.55,272.36,.54,276.04,.49,280.09,.41,287.19,.37,291.46,.39,293.06,.42,279.42,.53,272.93,.81,266.61
2018.01.09-19:00,1.19,203.70,1.22,222.04,1.11,228.31,.87,249.44,.63,250.14,.53,249.73,.46,261.96,.57,273.76,.56,278.50,.52,282.03,.43,287.89,.39,290.19,.39,290.52,.42,277.67,.52,270.79,.81,264.99
2018.01.09-20:00,1.23,214.41,1.27,229.58,1.19,233.96,.87,251.62,.67,250.16,.60,247.36,.50,257.79,.59,274.73,.57,280.93,.53,284.22,.44,288.84,.39,288.84,.38,287.27,.42,274.88,.52,268.12,.82,263.49
2018.01.09-21:00,1.22,223.16,1.31,236.49,1.26,239.53,.88,250.84,.72,247.69,.68,245.54,.55,254.22,.59,275.18,.56,283.11,.52,286.69,.43,290.14,.38,287.48,.38,283.84,.43,271.92,.55,266.12,.85,262.83
2018.01.09-22:00,1.22,227.42,1.31,239.62,1.27,242.15,.86,245.00,.77,241.83,.73,244.75,.57,252.08,.57,276.26,.51,284.40,.49,288.99,.40,290.98,.37,285.92,.38,280.94,.44,269.86,.58,265.91,.89,263.41
2018.01.09-23:00,1.19,230.32,1.28,241.00,1.23,243.62,.86,238.80,.82,239.57,.75,247.84,.59,253.70,.55,278.67,.47,284.23,.45,290.15,.37,289.98,.35,283.15,.38,277.88,.45,268.13,.60,266.12,.90,264.21
2018.01.09-24:00,1.14,233.84,1.23,242.74,1.16,245.06,.88,236.10,.86,241.86,.76,252.97,.61,257.15,.53,280.65,.44,282.32,.41,289.62,.35,287.27,.34,279.89,.37,275.10,.46,267.04,.60,266.35,.89,264.90
2018.01.10-01:00,1.07,236.20,1.15,243.72,1.07,245.37,.89,235.85,.88,245.55,.77,257.59,.63,260.13,.52,281.32,.42,279.00,.39,287.15,.33,283.40,.33,277.04,.36,273.00,.45,266.94,.58,267.02,.86,265.75
2018.01.10-02:00,.96,235.84,1.05,243.54,.97,244.98,.89,236.16,.86,247.97,.77,260.77,.64,261.83,.50,280.99,.41,275.29,.37,283.31,.33,279.46,.33,275.23,.36,271.54,.44,267.37,.56,267.94,.83,266.60
2018.01.10-03:00,.81,231.57,.96,243.42,.89,245.34,.89,236.94,.84,248.30,.75,262.80,.64,262.18,.49,279.93,.41,271.97,.37,279.14,.34,276.58,.34,274.69,.35,270.46,.42,267.74,.54,268.71,.80,267.23
2018.01.10-04:00,.77,230.21,.92,243.50,.85,245.78,.89,238.85,.82,247.28,.72,263.79,.63,261.44,.47,278.17,.42,269.28,.37,275.61,.35,275.23,.35,274.99,.35,269.26,.42,267.47,.52,268.86,.78,267.42
2018.01.10-05:00,.76,230.75,.89,242.58,.83,244.04,.87,240.89,.79,246.36,.68,265.00,.61,261.18,.46,277.24,.43,268.80,.39,274.39,.38,275.87,.37,275.55,.36,267.41,.42,266.01,.51,267.75,.77,266.86
2018.01.10-06:00,.77,232.75,.88,241.98,.83,242.11,.83,243.09,.75,247.21,.63,267.87,.60,263.28,.46,278.59,.45,271.20,.42,275.88,.41,277.98,.38,275.41,.38,264.29,.43,262.96,.52,265.17,.78,265.34
2018.01.10-07:00,.74,234.87,.88,243.61,.86,242.44,.81,245.40,.74,249.71,.59,271.35,.60,267.08,.46,281.14,.47,274.95,.44,278.56,.43,280.35,.40,274.06,.40,260.14,.45,259.09,.54,262.11,.80,263.46
2018.01.10-08:00,.67,237.80,.87,246.48,.87,245.10,.80,247.40,.74,253.19,.57,273.61,.62,270.89,.47,282.76,.49,277.84,.47,280.31,.45,281.46,.41,271.44,.43,255.99,.48,255.59,.56,259.61,.82,261.89
2018.01.10-09:00,.66,238.73,.87,246.58,.88,246.21,.82,246.24,.76,254.16,.56,271.77,.63,272.86,.48,282.47,.50,279.19,.49,281.09,.47,281.83,.43,269.22,.46,253.66,.51,253.80,.59,258.45,.83,261.16
2018.01.10-10:00,.69,234.43,.89,243.22,.91,243.08,.89,242.81,.80,252.33,.56,265.40,.63,272.49,.47,279.53,.50,278.84,.49,280.98,.47,281.85,.44,267.95,.49,253.20,.54,253.89,.60,258.96,.84,261.54
2018.01.10-11:00,.72,230.55,.92,240.17,.96,240.17,.96,242.07,.83,252.02,.57,259.84,.62,272.31,.45,275.71,.49,278.31,.49,280.97,.46,281.95,.44,267.03,.51,253.20,.55,254.47,.61,259.88,.85,262.25
2018.01.10-12:00,.74,227.91,.95,237.58,1.01,238.70,1.01,243.67,.84,253.49,.59,257.24,.60,273.13,.44,271.88,.48,278.41,.48,281.21,.44,281.98,.43,266.02,.51,253.04,.55,255.01,.61,260.66,.84,262.96
2018.01.10-13:00,.77,224.41,.97,234.80,1.05,238.67,1.01,246.13,.82,256.20,.60,257.63,.58,274.64,.45,269.27,.48,279.19,.49,281.62,.42,281.63,.41,264.92,.51,252.97,.55,255.74,.60,261.41,.82,263.62
2018.01.10-14:00,.77,222.26,.96,232.05,1.04,239.74,.99,248.00,.78,258.17,.62,258.71,.57,275.67,.47,268.15,.48,280.06,.49,282.32,.41,281.24,.40,263.95,.50,253.45,.53,256.85,.58,262.29,.79,264.09
2018.01.10-15:00,.75,220.78,.94,229.75,.99,241.24,.96,249.57,.73,258.47,.63,260.02,.54,276.59,.48,268.57,.48,281.11,.48,283.64,.39,281.42,.39,263.30,.49,254.54,.52,258.23,.55,263.20,.76,264.28
2018.01.10-16:00,.74,218.45,.93,228.64,.92,242.50,.91,251.64,.68,256.96,.61,261.17,.51,276.65,.48,268.94,.47,281.51,.47,284.63,.38,281.59,.39,263.03,.49,256.21,.51,259.99,.54,264.15,.73,264.42
2018.01.10-17:00,.75,214.65,.94,227.86,.86,241.41,.86,253.53,.63,253.60,.59,262.21,.48,275.85,.47,269.27,.46,281.68,.46,285.43,.36,282.01,.39,263.46,.49,258.19,.51,261.67,.53,264.65,.71,264.24
2018.01.10-18:00,.77,212.78,.98,227.66,.86,237.58,.80,254.95,.60,250.12,.55,263.88,.46,275.73,.47,271.03,.46,283.12,.45,286.88,.36,283.12,.40,264.49,.49,260.04,.51,262.66,.52,264.13,.71,263.38
2018.01.10-19:00,.87,220.20,1.06,230.90,.94,236.18,.78,256.97,.62,249.79,.53,266.51,.46,277.18,.49,274.46,.47,286.08,.45,289.15,.35,284.01,.41,265.11,.50,261.03,.51,262.38,.52,262.36,.71,261.73
2018.01.10-20:00,.92,228.75,1.15,237.45,1.06,239.18,.78,258.47,.66,251.22,.52,267.26,.46,277.98,.49,277.07,.49,288.50,.45,290.79,.34,282.93,.42,264.90,.50,261.45,.52,261.42,.53,260.41,.71,260.20
2018.01.10-21:00,.95,235.17,1.21,243.59,1.16,243.52,.78,255.96,.70,249.43,.51,262.66,.45,274.98,.50,276.61,.48,288.51,.44,290.18,.34,278.51,.43,263.96,.50,261.62,.53,261.19,.55,260.12,.73,260.27
2018.01.10-22:00,.94,237.06,1.25,247.47,1.21,246.88,.80,250.02,.77,245.46,.53,256.54,.45,269.64,.50,274.64,.48,286.85,.42,287.74,.34,272.40,.45,263.15,.51,261.81,.54,261.54,.57,261.02,.74,261.44
2018.01.10-23:00,.88,236.22,1.24,250.83,1.21,250.09,.83,246.69,.84,245.96,.58,255.33,.48,267.29,.52,274.33,.48,285.56,.40,284.73,.35,266.55,.46,262.21,.50,261.58,.54,261.43,.58,261.49,.74,262.24
2018.01.10-24:00,.79,232.55,1.19,252.70,1.17,252.24,.87,246.07,.90,249.97,.62,257.56,.52,268.00,.55,275.69,.48,285.13,.40,281.75,.37,262.22,.46,261.03,.49,260.89,.53,261.09,.58,261.65,.74,262.64
2018.01.11-01:00,.70,226.65,1.10,252.34,1.10,252.79,.88,246.62,.92,255.07,.66,260.90,.56,269.95,.58,277.77,.50,284.90,.40,278.51,.40,259.66,.46,259.88,.47,259.86,.52,260.83,.57,261.99,.72,263.08
2018.01.11-02:00,.61,219.16,.98,250.58,1.00,252.78,.87,246.73,.89,259.25,.67,263.41,.58,271.80,.60,279.84,.51,284.56,.41,275.08,.43,258.57,.47,259.34,.46,259.15,.50,260.87,.55,262.59,.70,263.70
2018.01.11-03:00,.55,211.23,.86,247.95,.90,252.86,.85,245.36,.84,260.80,.66,264.43,.57,273.07,.60,282.04,.50,284.58,.41,272.02,.45,258.51,.48,259.69,.46,259.24,.49,261.40,.54,263.32,.67,264.33
2018.01.11-04:00,.55,203.09,.77,243.14,.80,251.02,.84,244.19,.78,260.17,.64,265.30,.54,273.72,.57,284.37,.48,284.97,.41,269.70,.47,259.37,.48,261.08,.46,260.17,.48,262.29,.53,263.65,.65,264.50
2018.01.11-05:00,.60,198.57,.73,236.93,.74,245.52,.84,245.04,.75,260.19,.62,267.24,.51,273.56,.54,286.02,.46,284.69,.41,267.25,.49,260.28,.49,263.04,.46,261.66,.48,263.31,.52,263.50,.64,264.24
2018.01.11-06:00,.68,199.99,.76,231.64,.74,240.59,.84,247.67,.74,261.53,.61,269.49,.48,272.00,.50,286.12,.43,282.92,.41,264.21,.50,261.14,.49,265.20,.46,263.32,.48,264.08,.52,262.97,.63,263.61
2018.01.11-07:00,.79,205.17,.84,229.05,.79,237.46,.83,251.63,.73,264.74,.57,272.66,.46,270.71,.45,285.63,.40,280.22,.41,261.21,.50,262.38,.50,267.09,.47,264.42,.49,264.14,.53,261.90,.64,262.44
2018.01.11-08:00,.91,212.43,.94,229.99,.87,236.98,.81,256.24,.73,269.46,.54,275.56,.44,269.72,.41,284.15,.37,276.74,.43,259.49,.51,264.54,.50,268.72,.47,264.88,.51,263.36,.55,260.14,.66,260.65
2018.01.11-09:00,1.04,220.02,1.07,233.23,.99,238.61,.80,258.74,.72,273.22,.51,275.80,.45,268.08,.40,280.62,.37,272.05,.46,258.78,.53,266.88,.49,269.59,.48,264.77,.52,262.36,.56,258.62,.67,259.22
2018.01.11-10:00,1.16,226.08,1.20,236.21,1.11,240.44,.79,255.81,.69,271.66,.50,270.24,.47,264.32,.40,274.39,.40,266.19,.50,258.63,.54,268.86,.49,269.51,.49,264.51,.53,261.91,.57,258.48,.68,259.18
2018.01.11-11:00,1.24,231.41,1.29,239.58,1.19,242.99,.80,250.51,.66,266.09,.52,263.15,.51,261.21,.43,268.54,.44,261.99,.54,259.81,.55,270.90,.48,268.73,.49,263.78,.53,261.44,.58,258.88,.69,259.65
2018.01.11-12:00,1.27,235.84,1.35,242.89,1.22,245.53,.81,245.92,.65,260.58,.56,259.46,.55,260.54,.46,264.97,.48,260.09,.57,261.90,.55,272.53,.47,266.84,.49,262.18,.52,260.79,.58,259.76,.69,260.44
2018.01.11-13:00,1.24,238.77,1.36,245.72,1.23,247.41,.84,242.49,.65,256.13,.58,258.22,.57,260.88,.48,262.66,.52,259.40,.58,264.22,.53,273.67,.45,264.34,.49,260.29,.51,260.52,.56,261.12,.67,261.43
2018.01.11-14:00,1.15,241.66,1.33,249.22,1.20,250.30,.87,242.32,.66,254.63,.61,258.54,.59,261.37,.51,260.78,.55,258.94,.59,265.71,.51,273.79,.44,261.43,.48,258.31,.49,260.71,.54,262.70,.65,262.41
2018.01.11-15:00,.99,244.79,1.23,253.34,1.14,254.24,.89,244.21,.65,254.28,.61,258.76,.60,261.97,.53,259.81,.57,259.06,.58,266.78,.48,273.62,.43,258.85,.47,257.07,.47,261.35,.51,263.96,.62,262.87
2018.01.11-16:00,.81,247.61,1.08,257.07,1.02,258.35,.90,247.06,.63,253.14,.60,258.12,.59,262.67,.54,259.81,.57,259.97,.56,267.93,.45,273.51,.43,257.09,.47,257.29,.45,262.46,.48,264.46,.59,262.39
2018.01.11-17:00,.67,248.83,.92,259.19,.89,261.20,.89,250.95,.60,251.41,.58,257.25,.56,263.70,.53,260.84,.56,261.70,.54,269.22,.43,273.51,.43,256.38,.46,258.76,.43,263.64,.46,264.13,.57,261.22
2018.01.11-18:00,.58,247.81,.78,259.21,.78,262.13,.87,255.51,.59,249.13,.56,256.03,.53,264.14,.51,261.94,.54,263.52,.50,270.11,.40,272.77,.43,256.31,.46,260.83,.43,264.63,.44,263.41,.56,260.07
2018.01.11-19:00,.55,243.44,.70,256.02,.70,259.81,.84,259.85,.59,246.46,.54,254.26,.50,263.54,.49,262.58,.51,264.95,.47,270.25,.37,270.83,.44,256.68,.46,263.28,.43,265.45,.45,262.63,.57,259.20
2018.01.11-20:00,.59,237.44,.67,249.94,.66,253.30,.79,263.23,.60,244.44,.53,252.33,.48,261.89,.47,262.47,.49,265.53,.44,269.22,.35,267.36,.45,257.23,.47,265.61,.44,265.82,.46,262.06,.59,258.94
2018.01.11-21:00,.68,234.50,.71,243.91,.69,245.30,.74,264.36,.63,244.27,.55,252.17,.49,261.27,.48,263.21,.48,266.38,.43,268.29,.35,263.82,.47,257.91,.47,267.34,.44,264.99,.47,261.14,.61,258.77
2018.01.11-22:00,.79,233.65,.80,239.33,.78,239.29,.71,260.33,.70,243.55,.61,252.64,.53,261.55,.50,264.69,.49,267.53,.44,268.06,.37,261.43,.48,258.91,.46,268.70,.44,263.37,.48,260.10,.63,258.69
2018.01.11-23:00,.92,232.05,.93,237.26,.92,236.84,.73,253.20,.78,242.84,.68,254.21,.58,262.96,.54,266.68,.51,268.73,.45,268.35,.40,259.94,.49,259.67,.45,269.27,.45,261.09,.49,259.21,.63,258.87
2018.01.11-24:00,1.02,233.10,1.03,238.37,1.02,238.01,.77,248.07,.87,243.89,.74,257.07,.63,265.02,.57,268.23,.52,268.94,.46,267.86,.42,258.20,.50,259.81,.43,268.78,.45,258.69,.50,258.70,.64,259.32
2018.01.12-01:00,1.07,234.78,1.09,240.00,1.08,239.86,.82,245.04,.93,246.52,.78,260.84,.66,267.32,.58,268.77,.52,267.57,.47,265.84,.45,255.90,.50,259.41,.42,267.29,.45,256.99,.51,259.09,.64,260.44
2018.01.12-02:00,1.07,235.34,1.09,240.82,1.08,241.34,.85,243.31,.96,250.28,.78,265.07,.66,269.56,.56,268.33,.52,264.95,.47,262.57,.48,253.47,.51,258.92,.41,265.22,.45,256.11,.50,260.37,.63,262.20
2018.01.12-03:00,1.03,235.01,1.05,241.15,1.06,243.09,.88,242.55,.95,254.30,.75,268.94,.63,271.18,.53,266.96,.51,261.83,.47,259.11,.50,251.97,.51,259.17,.40,263.50,.45,255.84,.50,261.67,.61,263.65
2018.01.12-04:00,.98,233.38,1.01,240.66,1.02,244.91,.91,242.92,.93,258.18,.71,272.48,.59,272.41,.50,265.32,.50,259.45,.48,256.96,.51,252.18,.51,260.29,.39,262.12,.45,255.63,.48,262.00,.60,263.92
2018.01.12-05:00,.94,231.73,.98,240.62,.98,247.52,.94,245.00,.88,261.36,.66,275.06,.54,272.57,.47,262.81,.49,257.68,.48,256.18,.53,254.02,.51,262.42,.39,261.43,.44,255.47,.47,261.16,.57,262.88
2018.01.12-06:00,.92,230.36,.97,240.59,.94,249.88,.94,248.46,.80,263.37,.58,276.16,.48,270.77,.43,258.24,.48,255.49,.49,255.62,.54,256.42,.50,265.13,.39,261.49,.44,255.95,.45,259.78,.56,261.06
2018.01.12-07:00,.93,229.44,1.00,240.41,.90,250.78,.91,252.42,.72,263.77,.49,274.53,.41,265.78,.41,251.27,.47,252.66,.49,254.84,.54,258.72,.50,267.66,.40,261.73,.45,257.15,.46,258.80,.56,259.53
2018.01.12-08:00,.97,229.41,1.04,240.70,.88,249.84,.87,255.96,.67,263.05,.43,269.32,.38,257.58,.41,244.04,.48,250.15,.50,254.22,.54,260.71,.49,269.23,.41,261.38,.46,258.25,.47,258.35,.57,258.82
2018.01.12-09:00,1.03,230.29,1.10,241.31,.90,246.87,.81,258.27,.64,261.86,.40,262.19,.38,249.52,.44,239.61,.50,248.98,.51,254.12,.55,262.44,.48,269.78,.43,260.50,.48,258.80,.48,258.09,.59,258.68
2018.01.12-10:00,1.11,231.80,1.16,241.74,.97,243.20,.76,257.25,.64,259.88,.41,255.43,.42,245.10,.49,239.64,.54,250.32,.54,255.37,.55,264.52,.47,269.79,.44,259.61,.49,258.74,.50,257.47,.61,258.40
2018.01.12-11:00,1.17,234.37,1.21,242.70,1.07,241.39,.73,252.40,.66,257.03,.46,249.98,.48,243.89,.56,242.47,.57,253.30,.56,257.45,.55,266.62,.46,269.26,.46,259.02,.50,258.55,.51,256.61,.62,257.85
2018.01.12-12:00,1.21,237.51,1.23,244.48,1.14,241.79,.75,246.35,.70,253.60,.54,245.94,.56,243.85,.62,245.82,.61,256.32,.57,259.20,.53,267.87,.45,267.81,.47,258.77,.51,259.02,.51,256.28,.63,257.64
2018.01.12-13:00,1.20,239.86,1.23,247.33,1.17,243.80,.79,242.17,.74,250.66,.62,243.73,.63,244.45,.68,249.04,.62,258.71,.57,260.06,.51,267.49,.43,264.66,.47,258.29,.50,260.04,.51,257.14,.64,258.48
2018.01.12-14:00,1.16,242.24,1.20,250.19,1.16,246.27,.84,239.88,.76,249.01,.67,243.40,.67,246.11,.71,252.53,.62,260.83,.57,260.46,.48,265.73,.41,260.08,.47,257.57,.49,261.33,.51,258.86,.63,260.00
2018.01.12-15:00,1.08,243.81,1.14,252.09,1.13,248.71,.88,238.53,.76,248.17,.68,243.94,.69,248.73,.72,256.72,.61,263.45,.55,261.39,.45,263.78,.39,255.31,.46,257.03,.47,262.66,.49,260.67,.62,261.39
2018.01.12-16:00,1.00,244.19,1.05,252.99,1.07,251.05,.90,238.59,.74,247.99,.67,244.96,.68,252.15,.70,261.83,.58,267.06,.52,263.40,.42,262.57,.39,251.44,.45,256.71,.44,263.56,.47,261.90,.60,262.08
2018.01.12-17:00,.90,243.52,.94,253.08,.97,253.35,.91,240.10,.70,247.96,.65,245.62,.65,255.24,.67,267.12,.54,270.93,.49,265.79,.40,261.98,.39,249.38,.44,257.35,.42,264.21,.44,262.42,.58,262.10
2018.01.12-18:00,.81,243.23,.85,252.98,.85,255.00,.90,242.74,.65,246.74,.63,245.07,.62,256.94,.62,271.65,.49,273.76,.45,267.10,.38,261.01,.40,248.74,.43,258.85,.39,265.07,.42,262.68,.55,261.96
2018.01.12-19:00,.74,243.76,.76,251.94,.75,254.26,.88,244.90,.63,243.10,.62,243.14,.59,256.83,.57,274.71,.44,274.59,.41,266.61,.38,259.76,.41,249.44,.42,260.95,.37,266.29,.40,262.98,.54,261.95
2018.01.12-20:00,.70,243.88,.71,248.61,.68,250.02,.84,245.82,.63,238.95,.63,242.15,.58,256.41,.52,276.34,.39,273.11,.39,264.34,.38,258.56,.43,251.07,.41,262.89,.36,267.25,.39,262.87,.53,261.72
2018.01.12-21:00,.70,239.36,.70,242.36,.66,241.69,.82,245.82,.65,237.29,.66,244.76,.59,258.52,.48,278.08,.36,271.06,.38,261.98,.40,257.97,.45,252.86,.41,263.65,.36,266.91,.39,261.85,.53,260.93
2018.01.12-22:00,.74,232.18,.74,234.24,.71,231.56,.83,245.19,.69,237.90,.70,249.68,.61,262.74,.47,279.72,.36,268.73,.40,260.04,.43,257.93,.48,254.63,.41,263.43,.36,265.39,.40,260.22,.54,259.74
2018.01.12-23:00,.84,227.17,.83,228.57,.82,225.17,.86,244.64,.76,239.58,.76,254.38,.65,266.85,.46,279.59,.37,264.75,.42,257.82,.46,258.08,.50,256.62,.41,262.99,.37,263.40,.41,258.50,.55,258.52
2018.01.12-24:00,.96,227.27,.95,228.30,.97,225.21,.91,245.04,.84,241.65,.81,257.83,.67,269.82,.45,276.89,.40,258.65,.46,254.82,.49,257.72,.51,258.42,.41,262.44,.38,261.70,.43,257.47,.57,257.82
2018.01.13-01:00,1.06,230.78,1.06,231.68,1.10,229.48,.97,246.69,.90,244.01,.84,260.65,.66,271.98,.43,271.88,.43,252.00,.49,252.14,.51,257.32,.51,259.96,.41,261.57,.39,260.35,.45,256.96,.58,257.46
2018.01.13-02:00,1.12,234.73,1.12,235.74,1.18,235.06,1.00,249.25,.94,246.96,.83,263.81,.62,273.75,.41,265.40,.46,247.19,.52,251.06,.51,257.58,.51,261.34,.40,260.06,.41,258.93,.47,256.51,.60,257.08